QPF
0.00 0.00 0.00 0.00 0.00 0.00 0.00 0.00 0.00 0.00 0.00 0.00 0.00 0.00 0.00 0.00 0.00 0.00 0.00 0.00 0.00 0.00 0.00 0.00 0.00 0.00 0.00 0.00 0.00 0.00 0.00 0.00 0.00 0.00 0.00 0.00 0.00 0.01 0.00 0.00 0.00 0.00 0.00 0.00 0.00 0.00 0.00 0.00 0.00
0.00 0.00 0.00 0.00 0.00 0.00 0.00 0.00 0.00 0.00 0.00 0.00 0.00 0.00 0.00 0.00 0.00 0.00 0.00 0.00 0.00 0.00 0.00 0.00 0.00 0.00 0.00 0.00 0.00 0.00 0.00 0.00 0.00 0.00 0.00 0.00 0.01 0.00 0.00 0.00 0.00 0.00 0.00 0.00 0.00 0.00 0.00 0.00 0.00
0.00 0.00 0.00 0.00 0.00 0.00 0.00 0.00 0.00 0.00 0.00 0.00 0.00 0.00 0.00 0.00 0.00 0.00 0.00 0.00 0.00 0.00 0.00 0.00 0.00 0.00 0.00 0.00 0.00 0.00 0.00 0.00 0.00 0.01 0.01 0.02 0.01 0.00 0.00 0.00 0.00 0.00 0.00 0.00 0.00 0.00 0.00 0.00 0.00
0.00 0.00 0.00 0.00 0.00 0.00 0.00 0.00 0.00 0.00 0.00 0.00 0.00 0.00 0.00 0.00 0.00 0.00 0.00 0.00 0.00 0.00 0.00 0.00 0.00 0.00 0.00 0.00 0.00 0.00 0.00 0.00 0.00 0.01 0.00 0.00 0.00 0.00 0.00 0.00 0.00 0.00 0.00 0.00 0.00 0.00 0.00 0.00 0.00
0.00 0.00 0.00 0.00 0.00 0.00 0.00 0.00 0.00 0.00 0.00 0.00 0.00 0.00 0.00 0.00 0.00 0.00 0.00 0.00 0.00 0.00 0.00 0.00 0.00 0.00 0.00 0.00 0.00 0.00 0.00 0.00 0.00 0.00 0.00 0.00 0.00 0.00 0.00 0.00 0.00 0.00 0.00 0.00 0.00 0.00 0.00 0.00 0.00
0.00 0.00 0.00 0.00 0.00 0.00 0.00 0.00 0.00 0.00 0.00 0.00 0.00 0.00 0.00 0.00 0.00 0.00 0.00 0.00 0.00 0.00 0.00 0.00 0.00 0.00 0.00 0.00 0.00 0.00 0.00 0.00 0.00 0.00 0.00 0.00 0.00 0.00 0.00 0.00 0.00 0.00 0.00 0.00 0.00 0.00 0.00 0.00 0.00
0.00 0.00 0.00 0.00 0.00 0.00 0.00 0.00 0.00 0.00 0.00 0.00 0.00 0.00 0.00 0.00 0.00 0.00 0.00 0.00 0.00 0.00 0.00 0.00 0.00 0.00 0.00 0.00 0.00 0.00 0.00 0.00 0.00 0.00 0.00 0.00 0.00 0.00 0.00 0.00 0.00 0.00 0.00 0.00 0.00 0.00 0.00 0.01 0.02
0.00 0.00 0.00 0.00 0.00 0.00 0.00 0.00 0.00 0.00 0.00 0.00 0.00 0.00 0.00 0.00 0.00 0.00 0.00 0.00 0.00 0.00 0.00 0.00 0.00 0.00 0.00 0.00 0.00 0.00 0.00 0.00 0.00 0.00 0.00 0.00 0.00 0.00 0.00 0.00 0.00 0.00 0.00 0.00 0.01 0.01 0.02 0.04 0.02
0.00 0.00 0.00 0.00 0.00 0.00 0.00 0.00 0.00 0.00 0.00 0.00 0.00 0.00 0.00 0.00 0.00 0.00 0.00 0.00 0.00 0.00 0.00 0.00 0.00 0.00 0.00 0.00 0.00 0.00 0.00 0.00 0.00 0.00 0.00 0.00 0.00 0.00 0.00 0.00 0.00 0.00 0.00 0.01 0.01 0.01 0.01 0.01 0.00
0.00 0.00 0.00 0.00 0.00 0.00 0.00 0.00 0.00 0.00 0.00 0.00 0.00 0.00 0.00 0.00 0.00 0.00 0.00 0.00 0.00 0.00 0.00 0.00 0.00 0.00 0.00 0.00 0.00 0.00 0.00 0.00 0.00 0.00 0.00 0.00 0.00 0.00 0.00 0.00 0.00 0.00 0.00 0.01 0.01 0.01 0.00 0.00 0.00
0.00 0.00 0.00 0.00 0.00 0.00 0.00 0.00 0.00 0.00 0.00 0.00 0.00 0.00 0.00 0.00 0.00 0.00 0.00 0.00 0.00 0.00 0.00 0.00 0.00 0.00 0.00 0.00 0.00 0.00 0.00 0.00 0.00 0.00 0.00 0.00 0.00 0.00 0.00 0.00 0.00 0.00 0.00 0.00 0.00 0.00 0.00 0.00 0.00
0.00 0.00 0.00 0.00 0.00 0.00 0.00 0.00 0.00 0.00 0.00 0.00 0.00 0.00 0.00 0.00 0.00 0.00 0.00 0.00 0.00 0.00 0.00 0.00 0.00 0.00 0.00 0.00 0.00 0.00 0.00 0.00 0.00 0.00 0.00 0.00 0.00 0.00 0.00 0.00 0.00 0.00 0.00 0.00 0.00 0.00 0.00 0.00 0.00
0.00 0.00 0.00 0.00 0.00 0.00 0.00 0.00 0.00 0.00 0.00 0.00 0.00 0.00 0.00 0.00 0.00 0.00 0.00 0.00 0.00 0.00 0.00 0.00 0.00 0.00 0.00 0.00 0.00 0.00 0.00 0.00 0.00 0.00 0.00 0.00 0.00 0.00 0.00 0.00 0.00 0.00 0.00 0.00 0.00 0.00 0.00 0.00 0.00
0.00 0.00 0.00 0.00 0.00 0.00 0.00 0.00 0.00 0.00 0.00 0.00 0.00 0.00 0.00 0.00 0.00 0.00 0.00 0.00 0.00 0.00 0.00 0.00 0.00 0.00 0.00 0.00 0.00 0.00 0.00 0.00 0.00 0.00 0.00 0.00 0.00 0.00 0.00 0.00 0.00 0.00 0.00 0.00 0.00 0.00 0.00 0.00 0.00
0.01 0.00 0.00 0.00 0.00 0.00 0.00 0.00 0.00 0.00 0.00 0.00 0.00 0.00 0.00 0.00 0.00 0.00 0.00 0.00 0.00 0.00 0.00 0.00 0.00 0.00 0.00 0.00 0.00 0.00 0.00 0.00 0.00 0.00 0.00 0.00 0.00 0.00 0.00 0.00 0.00 0.00 0.00 0.00 0.00 0.00 0.00 0.00 0.00
0.04 0.01 0.01 0.00 0.00 0.00 0.00 0.00 0.00 0.00 0.00 0.00 0.00 0.00 0.00 0.00 0.00 0.00 0.00 0.00 0.00 0.00 0.00 0.00 0.00 0.00 0.00 0.00 0.00 0.00 0.00 0.00 0.00 0.00 0.00 0.00 0.00 0.00 0.00 0.00 0.00 0.00 0.00 0.00 0.00 0.00 0.00 0.00 0.00
0.03 0.01 0.00 0.00 0.00 0.00 0.00 0.00 0.00 0.00 0.00 0.00 0.00 0.00 0.00 0.00 0.00 0.00 0.00 0.00 0.00 0.00 0.00 0.00 0.00 0.00 0.00 0.00 0.00 0.00 0.00 0.00 0.00 0.00 0.00 0.00 0.00 0.00 0.00 0.00 0.00 0.00 0.00 0.00 0.00 0.00 0.00 0.00 0.00
0.00 0.00 0.00 0.00 0.00 0.00 0.00 0.00 0.00 0.00 0.00 0.00 0.00 0.00 0.00 0.00 0.00 0.00 0.00 0.00 0.00 0.00 0.00 0.00 0.00 0.00 0.00 0.00 0.00 0.00 0.00 0.00 0.00 0.00 0.00 0.00 0.00 0.00 0.00 0.00 0.00 0.00 0.00 0.00 0.00 0.00 0.00 0.00 0.00
0.00 0.00 0.00 0.00 0.00 0.00 0.00 0.00 0.00 0.00 0.00 0.00 0.00 0.00 0.00 0.00 0.00 0.00 0.00 0.00 0.00 0.00 0.00 0.00 0.00 0.00 0.00 0.00 0.00 0.00 0.00 0.00 0.00 0.00 0.00 0.00 0.00 0.00 0.00 0.00 0.00 0.00 0.00 0.00 0.00 0.00 0.00 0.00 0.00
0.00 0.00 0.00 0.00 0.00 0.00 0.00 0.00 0.00 0.00 0.00 0.00 0.00 0.00 0.00 0.00 0.00 0.00 0.00 0.00 0.00 0.00 0.00 0.00 0.00 0.00 0.00 0.00 0.00 0.00 0.00 0.00 0.00 0.00 0.00 0.00 0.00 0.00 0.00 0.00 0.00 0.00 0.00 0.00 0.00 0.00 0.00 0.00 0.00
0.00 0.00 0.00 0.00 0.00 0.00 0.01 0.00 0.00 0.00 0.00 0.00 0.00 0.00 0.00 0.00 0.00 0.00 0.00 0.00 0.00 0.00 0.00 0.00 0.00 0.00 0.00 0.00 0.00 0.00 0.00 0.00 0.00 0.00 0.00 0.00 0.00 0.00 0.00 0.00 0.00 0.00 0.00 0.00 0.00 0.00 0.00 0.00 0.00
0.00 0.00 0.00 0.00 0.00 0.00 0.01 0.00 0.00 0.00 0.00 0.00 0.00 0.00 0.00 0.00 0.00 0.00 0.00 0.00 0.00 0.00 0.00 0.00 0.00 0.00 0.00 0.00 0.00 0.00 0.00 0.00 0.00 0.00 0.00 0.00 0.00 0.00 0.00 0.00 0.00 0.00 0.00 0.00 0.00 0.00 0.00 0.00 0.00
0.00 0.01 0.00 0.00 0.01 0.00 0.01 0.00 0.00 0.00 0.00 0.00 0.00 0.00 0.00 0.00 0.00 0.00 0.00 0.00 0.00 0.00 0.00 0.00 0.00 0.00 0.00 0.00 0.00 0.00 0.00 0.00 0.00 0.00 0.00 0.00 0.00 0.00 0.00 0.00 0.00 0.00 0.00 0.00 0.00 0.00 0.00 0.00 0.00
0.01 0.01 0.01 0.01 0.02 0.01 0.00 0.00 0.00 0.00 0.00 0.00 0.00 0.00 0.00 0.00 0.00 0.00 0.00 0.00 0.00 0.00 0.00 0.00 0.00 0.00 0.00 0.00 0.00 0.00 0.00 0.00 0.00 0.00 0.00 0.00 0.00 0.00 0.00 0.00 0.00 0.00 0.00 0.00 0.00 0.00 0.00 0.00 0.00
0.02 0.01 0.01 0.02 0.01 0.00 0.00 0.00 0.00 0.00 0.00 0.00 0.00 0.00 0.00 0.00 0.00 0.00 0.00 0.00 0.00 0.00 0.00 0.00 0.00 0.00 0.00 0.00 0.00 0.00 0.00 0.00 0.00 0.00 0.00 0.00 0.00 0.00 0.00 0.00 0.00 0.00 0.00 0.00 0.00 0.00 0.00 0.00 0.00
0.01 0.00 0.00 0.00 0.00 0.00 0.00 0.00 0.00 0.00 0.00 0.00 0.00 0.00 0.00 0.00 0.00 0.00 0.00 0.00 0.00 0.00 0.00 0.00 0.00 0.00 0.00 0.00 0.00 0.00 0.00 0.00 0.00 0.00 0.00 0.00 0.00 0.00 0.01 0.00 0.00 0.00 0.00 0.00 0.00 0.00 0.00 0.00 0.00
0.00 0.00 0.00 0.00 0.00 0.00 0.00 0.00 0.00 0.00 0.00 0.00 0.00 0.00 0.00 0.00 0.00 0.00 0.00 0.00 0.00 0.00 0.00 0.00 0.00 0.00 0.00 0.00 0.00 0.00 0.00 0.00 0.00 0.00 0.00 0.00 0.00 0.00 0.00 0.00 0.00 0.00 0.00 0.00 0.00 0.00 0.00 0.00 0.00
0.00 0.00 0.00 0.00 0.00 0.00 0.00 0.00 0.00 0.00 0.00 0.00 0.00 0.00 0.00 0.00 0.00 0.00 0.00 0.00 0.00 0.01 0.02 0.01 0.00 0.00 0.00 0.00 0.00 0.00 0.00 0.00 0.00 0.00 0.00 0.00 0.00 0.00 0.00 0.00 0.00 0.00 0.00 0.00 0.00 0.00 0.00 0.00 0.00
0.00 0.00 0.00 0.00 0.00 0.00 0.00 0.00 0.00 0.00 0.00 0.00 0.00 0.00 0.00 0.00 0.00 0.00 0.00 0.00 0.00 0.00 0.00 0.01 0.01 0.00 0.00 0.00 0.00 0.00 0.00 0.00 0.00 0.00 0.00 0.00 0.00 0.00 0.00 0.00 0.00 0.00 0.00 0.00 0.00 0.00 0.00 0.00 0.00
0.00 0.00 0.00 0.00 0.00 0.00 0.00 0.00 0.00 0.00 0.00 0.00 0.00 0.00 0.00 0.00 0.00 0.00 0.00 0.00 0.00 0.00 0.00 0.00 0.00 0.00 0.00 0.00 0.00 0.00 0.00 0.00 0.00 0.00 0.00 0.00 0.00 0.00 0.00 0.00 0.00 0.00 0.00 0.00 0.00 0.00 0.00 0.00 0.00
MSLP
1014.28 1014.12 1014.56 1014.93 1016.11 1016.20 1015.80 1014.58 1013.51 1012.96 1012.61 1012.47 1012.66 1013.04 1014.47 1015.48 1016.01 1017.28 1016.85 1017.21 1017.46 1018.03 1018.38 1018.71 1018.95 1019.22 1019.49 1019.74 1019.92 1020.12 1020.31 1020.47 1020.63 1020.68 1020.79 1020.89 1020.97 1021.12 1021.21 1021.13 1021.02 1021.03 1021.04 1021.06 1021.14 1021.12 1021.22 1021.20 1021.19
1014.39 1014.42 1014.96 1015.52 1016.16 1016.37 1015.29 1013.73 1013.11 1012.66 1012.86 1012.70 1012.91 1013.86 1014.76 1015.81 1016.05 1016.86 1017.38 1017.48 1017.50 1017.97 1018.36 1018.76 1019.10 1019.38 1019.59 1019.85 1020.04 1020.21 1020.36 1020.53 1020.75 1020.85 1020.96 1021.05 1021.16 1021.31 1021.38 1021.38 1021.31 1021.29 1021.28 1021.31 1021.30 1021.40 1021.49 1021.47 1021.43
1014.59 1014.57 1015.59 1015.89 1015.92 1015.93 1014.71 1013.18 1012.56 1012.34 1012.88 1012.54 1013.55 1014.21 1015.05 1015.81 1016.28 1016.70 1016.94 1017.49 1017.63 1018.22 1018.60 1019.01 1019.26 1019.54 1019.79 1020.07 1020.28 1020.44 1020.57 1020.71 1020.82 1020.91 1021.04 1021.15 1021.38 1021.54 1021.59 1021.64 1021.63 1021.66 1021.58 1021.49 1021.52 1021.73 1021.84 1021.88 1021.80
1014.83 1015.18 1016.11 1016.04 1015.68 1014.86 1013.80 1012.73 1012.10 1012.57 1012.88 1012.64 1013.63 1014.87 1015.21 1015.18 1015.79 1016.23 1017.03 1017.26 1017.72 1018.36 1018.84 1019.30 1019.50 1019.69 1019.91 1020.17 1020.44 1020.62 1020.77 1020.88 1021.02 1021.10 1021.23 1021.42 1021.68 1021.80 1021.86 1021.96 1021.97 1021.90 1021.85 1021.89 1022.05 1022.08 1022.12 1022.12 1022.08
1015.22 1015.89 1016.30 1016.06 1015.29 1014.12 1013.11 1012.02 1012.07 1012.64 1013.07 1013.19 1013.63 1015.13 1015.61 1015.65 1015.65 1016.44 1017.18 1017.47 1017.86 1018.53 1018.99 1019.40 1019.64 1019.86 1020.10 1020.36 1020.57 1020.78 1020.95 1021.04 1021.21 1021.38 1021.55 1021.79 1021.92 1022.01 1022.05 1022.16 1022.24 1022.31 1022.34 1022.35 1022.36 1022.37 1022.34 1022.37 1022.38
1016.02 1016.25 1016.43 1015.90 1014.76 1013.73 1012.75 1011.72 1011.99 1012.40 1013.04 1013.70 1014.15 1015.06 1015.83 1015.78 1016.01 1016.72 1017.16 1017.77 1018.14 1018.65 1019.13 1019.51 1019.79 1020.02 1020.22 1020.49 1020.80 1021.01 1021.18 1021.31 1021.46 1021.67 1021.85 1022.05 1022.13 1022.21 1022.26 1022.34 1022.45 1022.56 1022.57 1022.61 1022.60 1022.65 1022.65 1022.63 1022.61
1016.17 1016.60 1016.23 1015.38 1014.41 1013.63 1012.46 1011.46 1011.84 1012.14 1012.58 1013.16 1013.75 1015.41 1016.14 1016.27 1016.20 1016.70 1017.28 1017.88 1018.38 1018.84 1019.18 1019.65 1020.00 1020.18 1020.40 1020.65 1020.91 1021.20 1021.38 1021.51 1021.69 1021.91 1022.04 1022.26 1022.38 1022.45 1022.48 1022.54 1022.58 1022.64 1022.69 1022.75 1022.82 1022.89 1022.82 1022.77 1023.01
1016.17 1016.60 1016.22 1015.11 1014.25 1013.11 1011.96 1011.39 1011.01 1011.59 1012.13 1012.46 1013.27 1014.60 1015.92 1015.72 1016.24 1016.74 1017.54 1018.14 1018.64 1019.04 1019.32 1019.70 1020.12 1020.38 1020.67 1020.92 1021.13 1021.31 1021.53 1021.70 1021.90 1022.13 1022.31 1022.45 1022.56 1022.63 1022.71 1022.75 1022.74 1022.78 1022.81 1022.87 1022.91 1023.00 1023.08 1023.36 1023.60
1015.93 1016.49 1015.79 1014.67 1013.91 1012.99 1011.77 1011.75 1011.15 1011.13 1011.88 1012.50 1012.94 1013.21 1013.27 1015.06 1015.99 1016.83 1017.71 1018.39 1018.83 1019.23 1019.48 1019.69 1020.12 1020.51 1020.82 1021.07 1021.28 1021.49 1021.74 1021.93 1022.11 1022.27 1022.44 1022.59 1022.71 1022.79 1022.89 1022.90 1022.89 1022.87 1022.85 1022.91 1023.00 1023.19 1023.50 1023.90 1024.32
1015.81 1015.89 1014.97 1014.08 1013.36 1012.91 1012.37 1012.14 1011.86 1011.69 1012.06 1012.81 1013.11 1013.30 1013.50 1014.91 1015.62 1016.25 1016.97 1017.73 1018.32 1018.78 1019.31 1019.48 1020.04 1020.52 1020.89 1021.06 1021.39 1021.63 1021.90 1022.14 1022.29 1022.41 1022.57 1022.70 1022.79 1022.92 1022.93 1023.11 1023.15 1023.03 1022.96 1023.09 1023.27 1023.57 1023.92 1024.18 1024.70
1015.36 1014.82 1014.45 1013.84 1013.54 1013.20 1012.75 1012.49 1012.31 1011.90 1012.13 1012.05 1012.36 1013.20 1013.90 1014.71 1015.66 1016.12 1016.61 1017.16 1017.50 1018.17 1018.92 1019.40 1019.79 1020.33 1020.69 1021.00 1021.46 1021.76 1022.00 1022.20 1022.36 1022.48 1022.61 1022.67 1022.78 1023.01 1023.10 1023.29 1023.34 1023.37 1023.35 1023.36 1023.74 1023.94 1024.32 1024.67 1024.93
1015.06 1014.53 1013.84 1013.65 1013.65 1013.50 1013.37 1013.02 1012.49 1012.27 1011.51 1011.26 1012.24 1012.47 1013.46 1014.35 1015.11 1015.61 1016.28 1016.81 1017.33 1017.84 1018.22 1019.14 1019.45 1020.01 1020.39 1020.84 1021.31 1021.67 1022.01 1022.17 1022.38 1022.50 1022.59 1022.67 1022.85 1022.89 1023.07 1023.30 1023.48 1023.52 1023.61 1023.84 1024.17 1024.32 1024.81 1025.02 1025.32
1014.54 1014.12 1014.00 1013.43 1013.66 1013.76 1013.70 1013.25 1013.16 1012.08 1011.65 1011.90 1012.41 1013.05 1013.28 1013.82 1014.66 1015.52 1015.99 1016.64 1017.06 1017.53 1018.03 1018.80 1019.16 1019.61 1020.12 1020.58 1021.11 1021.58 1021.84 1022.01 1022.06 1022.23 1022.31 1022.52 1022.76 1022.89 1023.06 1023.34 1023.52 1023.70 1023.93 1024.17 1024.51 1024.72 1025.11 1025.40 1025.61
1013.79 1014.05 1013.94 1013.45 1013.74 1013.94 1013.98 1013.08 1012.95 1011.92 1011.72 1012.33 1012.64 1013.16 1013.36 1013.68 1014.30 1015.32 1015.85 1016.21 1016.69 1017.14 1017.66 1018.32 1018.91 1019.22 1019.78 1020.21 1020.73 1021.32 1021.61 1021.72 1021.95 1022.07 1022.17 1022.28 1022.58 1022.65 1023.11 1023.49 1023.60 1023.82 1024.00 1024.41 1024.69 1025.02 1025.44 1025.66 1025.98
1013.75 1014.24 1013.95 1013.36 1013.55 1013.97 1013.62 1012.76 1012.51 1011.89 1012.27 1012.53 1012.81 1013.00 1013.34 1013.61 1014.17 1014.51 1015.00 1015.57 1016.11 1016.64 1017.36 1017.96 1018.52 1018.78 1019.39 1019.89 1020.39 1020.94 1021.22 1021.49 1021.72 1021.81 1021.91 1022.11 1022.21 1022.28 1022.85 1023.48 1023.81 1024.09 1024.18 1024.65 1024.96 1025.32 1025.54 1026.00 1026.32
1013.82 1013.79 1013.43 1012.17 1013.16 1013.54 1014.15 1012.16 1012.05 1011.91 1012.16 1012.74 1012.77 1013.09 1013.29 1013.52 1013.64 1014.21 1014.74 1015.22 1015.80 1016.41 1017.01 1017.65 1018.11 1018.61 1019.03 1019.57 1020.16 1020.58 1020.92 1021.21 1021.42 1021.66 1021.83 1021.93 1022.02 1022.22 1022.94 1023.44 1023.82 1024.10 1024.31 1024.67 1025.07 1025.23 1025.99 1026.36 1026.79
1013.30 1011.87 1011.32 1011.87 1011.70 1013.00 1013.09 1012.02 1011.30 1011.50 1012.04 1012.37 1012.71 1012.98 1012.93 1013.42 1013.76 1013.95 1014.27 1014.78 1015.28 1015.78 1016.55 1017.22 1017.68 1018.21 1018.77 1019.37 1019.87 1020.33 1020.71 1021.10 1021.24 1021.47 1021.68 1021.80 1022.01 1022.26 1022.73 1023.33 1023.71 1023.97 1024.36 1024.71 1024.89 1025.27 1026.05 1026.64 1027.32
1012.52 1011.25 1010.84 1010.32 1010.60 1011.45 1012.10 1011.53 1011.00 1011.20 1011.44 1011.73 1012.20 1012.65 1012.84 1012.90 1012.58 1013.17 1013.78 1014.36 1014.93 1015.45 1016.06 1016.84 1017.39 1018.01 1018.52 1019.08 1019.71 1020.25 1020.62 1020.93 1021.15 1021.34 1021.57 1021.78 1022.05 1022.36 1022.90 1023.33 1023.58 1023.81 1024.20 1024.66 1024.98 1025.45 1026.13 1026.79 1027.63
1012.43 1011.59 1010.94 1010.56 1010.77 1011.37 1011.24 1011.41 1010.89 1011.28 1011.07 1011.38 1011.81 1012.07 1012.18 1012.09 1012.26 1013.06 1013.41 1013.95 1014.56 1015.10 1015.62 1016.29 1016.96 1017.63 1018.32 1018.89 1019.57 1020.19 1020.48 1020.97 1021.31 1021.34 1021.36 1021.75 1022.10 1022.45 1022.79 1023.17 1023.50 1023.88 1024.12 1024.42 1024.65 1025.43 1026.19 1027.21 1027.74
1013.19 1012.29 1010.58 1010.86 1011.01 1011.16 1011.32 1010.70 1010.90 1010.77 1010.44 1010.36 1010.64 1011.16 1011.08 1011.72 1012.06 1012.34 1012.83 1013.39 1013.86 1014.41 1014.96 1015.68 1016.28 1016.97 1017.67 1018.15 1018.78 1019.39 1020.03 1020.83 1021.06 1021.41 1021.51 1021.73 1022.04 1022.28 1022.67 1023.02 1023.42 1023.78 1024.18 1024.45 1024.76 1025.11 1026.24 1027.06 1027.34
1012.55 1011.83 1010.77 1010.33 1010.85 1011.09 1011.29 1011.09 1010.40 1009.75 1009.69 1009.30 1009.37 1009.54 1010.09 1010.41 1010.82 1011.52 1012.02 1012.42 1013.15 1013.66 1014.14 1014.73 1015.45 1016.28 1016.99 1017.73 1018.52 1019.35 1020.34 1021.06 1021.53 1021.37 1021.76 1021.81 1021.93 1022.20 1022.46 1022.83 1023.25 1023.55 1023.84 1024.25 1024.54 1024.86 1025.41 1026.49 1027.11
1012.39 1011.73 1010.25 1010.30 1010.99 1011.02 1011.50 1009.77 1008.87 1008.88 1008.88 1008.17 1008.32 1008.49 1009.10 1009.60 1010.15 1010.61 1011.26 1011.79 1012.01 1012.55 1013.38 1013.94 1014.69 1015.49 1016.31 1017.04 1017.80 1018.46 1018.97 1019.78 1020.12 1020.69 1021.50 1021.73 1021.91 1022.10 1022.34 1022.78 1023.07 1023.49 1023.81 1024.13 1024.21 1024.57 1025.08 1025.74 1026.67
1012.09 1011.56 1010.26 1009.94 1010.45 1010.62 1010.67 1010.45 1006.73 1007.44 1007.29 1006.65 1007.09 1007.37 1007.82 1008.30 1008.69 1009.35 1009.90 1010.14 1011.03 1012.12 1012.53 1013.20 1014.07 1014.96 1015.58 1016.24 1016.93 1017.72 1018.43 1018.80 1019.75 1020.52 1021.34 1021.80 1021.94 1022.04 1022.23 1022.52 1022.93 1023.46 1023.77 1024.10 1024.22 1024.67 1024.95 1025.41 1026.23
1011.63 1010.11 1010.43 1010.46 1010.56 1010.07 1009.87 1009.28 1006.79 1005.62 1005.36 1005.83 1006.29 1006.40 1006.80 1007.38 1007.83 1008.19 1008.43 1009.64 1010.74 1011.48 1012.14 1012.68 1013.45 1013.98 1014.72 1015.45 1016.06 1016.74 1017.53 1018.57 1019.58 1020.32 1021.01 1021.53 1021.84 1022.07 1022.15 1022.44 1022.79 1022.93 1023.54 1023.74 1024.07 1024.59 1025.02 1025.33 1025.78
1011.22 1009.42 1009.76 1010.31 1009.88 1009.57 1009.07 1008.98 1005.34 1004.86 1004.51 1004.16 1004.56 1005.03 1005.74 1006.33 1006.78 1007.27 1008.09 1009.05 1009.70 1010.46 1011.09 1011.85 1012.44 1013.09 1013.79 1014.53 1015.24 1015.91 1016.65 1017.66 1018.49 1019.27 1019.97 1020.85 1021.41 1021.58 1021.75 1022.15 1022.66 1022.89 1023.31 1023.33 1023.88 1024.41 1024.99 1025.34 1025.62
1009.80 1008.52 1008.50 1009.08 1009.37 1009.45 1009.17 1007.01 1004.86 1004.77 1004.36 1004.14 1004.15 1004.05 1004.81 1005.16 1005.65 1006.28 1006.96 1007.60 1008.38 1009.09 1009.99 1010.74 1011.36 1012.05 1012.80 1013.65 1014.31 1015.23 1016.09 1016.91 1017.68 1018.51 1019.18 1019.85 1020.32 1020.63 1021.08 1021.71 1022.31 1022.74 1023.16 1023.50 1023.67 1024.39 1024.90 1025.20 1025.62
1008.51 1008.68 1008.83 1009.07 1009.67 1009.54 1008.41 1007.11 1005.63 1004.63 1004.49 1004.30 1004.15 1003.71 1004.28 1004.50 1005.05 1005.69 1006.24 1006.62 1007.36 1008.36 1009.06 1009.45 1010.26 1011.15 1011.97 1012.59 1013.66 1014.60 1015.53 1016.24 1016.95 1017.83 1018.62 1019.24 1019.69 1020.07 1020.58 1021.26 1022.20 1022.68 1022.70 1023.50 1023.70 1024.25 1024.79 1025.31 1025.71
1008.31 1008.81 1009.51 1009.29 1009.77 1009.50 1008.66 1008.05 1006.96 1006.15 1005.75 1005.05 1004.60 1004.09 1004.32 1004.51 1004.53 1004.81 1005.42 1006.13 1006.68 1007.29 1008.10 1009.15 1009.84 1010.41 1011.11 1011.97 1012.67 1013.80 1014.68 1015.41 1016.26 1017.20 1017.88 1018.62 1019.33 1019.91 1020.52 1021.16 1021.79 1022.37 1022.61 1023.39 1023.68 1024.28 1024.83 1025.19 1025.78
1009.58 1009.01 1009.10 1009.20 1009.89 1009.62 1009.17 1008.76 1007.96 1007.56 1006.96 1006.50 1005.48 1004.62 1004.40 1004.21 1004.65 1005.06 1005.38 1005.83 1006.48 1007.05 1007.98 1008.56 1009.32 1009.87 1010.42 1011.09 1012.13 1013.08 1014.04 1014.90 1015.41 1016.03 1016.85 1017.75 1018.52 1019.28 1020.05 1020.70 1021.45 1022.08 1022.41 1023.21 1023.64 1024.23 1024.72 1025.21 1025.77
1009.80 1009.27 1009.14 1009.25 1009.85 1009.62 1009.21 1009.24 1008.38 1007.84 1007.36 1007.06 1006.24 1005.57 1005.15 1005.20 1005.25 1005.38 1005.63 1006.10 1006.52 1006.92 1007.63 1008.17 1008.90 1009.65 1010.13 1010.74 1011.69 1012.77 1013.42 1014.24 1014.95 1015.62 1016.36 1017.03 1017.96 1018.74 1019.44 1020.29 1021.13 1021.81 1022.22 1022.85 1023.32 1024.05 1024.53 1025.10 1025.58
Thickness
5703 5707 5706 5702 5674 5670 5663 5681 5704 5704 5709 5719 5723 5720 5707 5703 5703 5690 5709 5709 5708 5704 5701 5699 5698 5696 5695 5695 5695 5695 5694 5694 5693 5694 5693 5693 5693 5692 5691 5691 5691 5690 5688 5686 5684 5683 5680 5679 5677
5698 5701 5697 5685 5664 5653 5661 5697 5701 5705 5710 5713 5717 5711 5704 5696 5707 5702 5702 5707 5707 5704 5701 5698 5697 5696 5696 5695 5695 5695 5695 5695 5694 5694 5693 5693 5692 5691 5690 5689 5688 5687 5686 5684 5682 5680 5677 5676 5674
5690 5694 5678 5669 5663 5652 5665 5704 5706 5710 5708 5717 5709 5711 5704 5697 5703 5704 5708 5706 5705 5702 5699 5698 5697 5696 5696 5695 5694 5694 5694 5694 5694 5694 5693 5692 5691 5689 5688 5686 5685 5683 5682 5682 5680 5677 5674 5671 5669
5679 5676 5669 5656 5663 5675 5686 5703 5712 5707 5707 5714 5707 5694 5707 5713 5707 5709 5707 5706 5704 5700 5697 5695 5695 5695 5696 5695 5694 5694 5694 5694 5693 5693 5692 5691 5689 5687 5686 5683 5681 5680 5679 5677 5675 5672 5669 5667 5665
5669 5660 5647 5654 5666 5682 5699 5712 5713 5704 5701 5704 5709 5692 5694 5706 5710 5708 5704 5703 5702 5698 5696 5694 5694 5694 5694 5694 5693 5693 5692 5693 5692 5691 5690 5688 5686 5685 5684 5681 5678 5676 5674 5673 5670 5668 5666 5663 5660
5647 5650 5636 5646 5664 5681 5696 5710 5706 5704 5704 5695 5695 5692 5692 5705 5705 5703 5702 5700 5698 5696 5694 5692 5692 5692 5693 5692 5691 5691 5690 5690 5690 5688 5687 5685 5684 5682 5681 5678 5676 5673 5671 5668 5667 5663 5661 5658 5656
5638 5634 5636 5655 5664 5669 5689 5711 5698 5698 5701 5698 5701 5683 5688 5695 5702 5701 5699 5697 5695 5693 5693 5691 5690 5690 5691 5690 5690 5689 5688 5687 5687 5686 5685 5682 5681 5679 5678 5676 5674 5671 5668 5665 5663 5659 5657 5656 5652
5633 5630 5635 5650 5655 5669 5696 5704 5711 5703 5700 5709 5706 5684 5679 5695 5699 5697 5694 5692 5691 5690 5690 5690 5689 5688 5688 5687 5687 5686 5686 5685 5685 5683 5682 5680 5678 5676 5674 5673 5671 5668 5665 5662 5659 5656 5653 5650 5646
5636 5618 5624 5648 5656 5672 5691 5692 5705 5711 5702 5705 5706 5702 5708 5701 5698 5693 5688 5686 5687 5687 5688 5688 5687 5686 5686 5685 5685 5683 5683 5683 5682 5681 5680 5677 5676 5674 5672 5670 5668 5665 5663 5660 5657 5654 5650 5645 5639
5622 5610 5632 5656 5669 5670 5673 5684 5690 5697 5695 5693 5695 5701 5708 5698 5696 5693 5691 5687 5686 5686 5686 5687 5686 5685 5684 5683 5683 5681 5680 5680 5679 5678 5676 5674 5673 5671 5670 5667 5664 5662 5660 5657 5654 5650 5646 5641 5635
5620 5618 5636 5651 5659 5663 5666 5673 5682 5687 5688 5701 5697 5694 5697 5695 5690 5690 5690 5688 5688 5687 5686 5686 5686 5684 5683 5682 5680 5680 5679 5677 5676 5675 5673 5672 5671 5669 5667 5664 5661 5658 5656 5653 5649 5646 5641 5635 5629
5610 5624 5637 5645 5647 5653 5654 5666 5671 5681 5701 5711 5700 5702 5698 5695 5690 5689 5687 5687 5687 5688 5689 5685 5685 5684 5682 5680 5679 5678 5676 5675 5674 5672 5670 5670 5668 5666 5664 5662 5658 5655 5653 5650 5645 5642 5636 5631 5623
5610 5620 5629 5639 5638 5643 5649 5654 5659 5678 5696 5698 5697 5696 5698 5694 5692 5688 5687 5685 5686 5685 5686 5685 5685 5683 5682 5680 5678 5676 5674 5674 5673 5671 5669 5667 5666 5664 5661 5659 5656 5652 5648 5644 5639 5636 5629 5623 5618
5610 5612 5617 5626 5627 5631 5632 5650 5655 5681 5687 5687 5690 5690 5693 5693 5691 5685 5685 5685 5685 5686 5686 5686 5684 5683 5681 5680 5677 5674 5672 5672 5670 5669 5668 5666 5664 5662 5658 5654 5652 5647 5644 5639 5634 5630 5623 5618 5611
5599 5592 5606 5616 5619 5620 5631 5641 5644 5677 5677 5680 5684 5688 5689 5691 5690 5688 5686 5685 5685 5684 5683 5683 5682 5682 5680 5679 5676 5672 5671 5670 5669 5668 5667 5664 5663 5660 5655 5650 5646 5640 5639 5633 5628 5623 5617 5610 5604
5580 5586 5587 5617 5613 5618 5616 5630 5651 5665 5667 5670 5679 5681 5685 5688 5689 5688 5686 5685 5685 5682 5682 5681 5682 5680 5679 5676 5674 5671 5670 5669 5668 5666 5665 5662 5661 5658 5652 5646 5642 5637 5634 5629 5622 5618 5609 5603 5596
5570 5587 5604 5608 5618 5615 5613 5627 5658 5660 5664 5666 5671 5675 5682 5684 5684 5687 5687 5686 5685 5685 5682 5681 5681 5679 5677 5674 5672 5669 5667 5665 5665 5666 5664 5661 5658 5655 5649 5643 5638 5633 5629 5625 5620 5614 5604 5597 5588
5568 5586 5604 5612 5620 5616 5608 5626 5652 5652 5659 5664 5668 5672 5675 5682 5691 5689 5685 5685 5684 5684 5683 5679 5678 5676 5675 5672 5670 5667 5665 5663 5662 5663 5661 5658 5655 5651 5644 5639 5635 5631 5626 5621 5615 5609 5599 5591 5581
5564 5584 5594 5606 5611 5606 5611 5617 5642 5644 5651 5656 5660 5667 5672 5682 5687 5685 5685 5684 5682 5682 5682 5680 5678 5675 5672 5670 5666 5664 5663 5660 5659 5660 5659 5655 5651 5647 5641 5637 5633 5628 5624 5619 5614 5605 5595 5582 5575
5539 5556 5586 5590 5598 5598 5605 5616 5634 5640 5648 5660 5665 5669 5677 5677 5679 5685 5686 5684 5685 5683 5682 5680 5678 5676 5673 5672 5670 5668 5664 5658 5657 5655 5654 5651 5647 5644 5639 5634 5630 5625 5619 5615 5609 5603 5589 5578 5573
5536 5550 5578 5588 5591 5592 5593 5598 5617 5637 5643 5659 5668 5677 5679 5681 5684 5684 5686 5688 5686 5686 5686 5684 5681 5677 5675 5672 5667 5663 5657 5652 5649 5650 5647 5646 5643 5640 5637 5631 5627 5622 5617 5612 5606 5599 5591 5576 5568
5531 5552 5581 5586 5578 5574 5583 5590 5619 5633 5635 5653 5665 5675 5679 5682 5683 5683 5683 5684 5690 5691 5687 5686 5684 5680 5677 5673 5670 5666 5665 5660 5656 5651 5644 5642 5638 5635 5632 5627 5623 5617 5613 5607 5602 5595 5586 5577 5566
5531 5553 5578 5587 5583 5578 5579 5577 5635 5639 5638 5658 5666 5675 5682 5686 5689 5689 5692 5697 5694 5688 5689 5687 5683 5679 5677 5675 5672 5666 5664 5661 5652 5645 5639 5635 5632 5630 5627 5623 5619 5612 5607 5601 5596 5587 5581 5574 5563
5543 5564 5566 5570 5573 5571 5582 5585 5614 5638 5649 5662 5663 5673 5682 5686 5689 5695 5701 5695 5688 5686 5685 5686 5684 5683 5679 5677 5674 5669 5664 5654 5647 5641 5636 5630 5626 5624 5621 5616 5612 5609 5602 5597 5591 5582 5573 5566 5559
5534 5565 5555 5559 5565 5572 5588 5582 5628 5644 5659 5675 5679 5681 5684 5690 5691 5695 5694 5691 5692 5690 5690 5687 5687 5685 5682 5677 5674 5668 5664 5656 5650 5643 5637 5629 5623 5619 5617 5612 5607 5602 5596 5592 5584 5576 5567 5558 5552
5538 5568 5569 5568 5574 5574 5581 5590 5623 5647 5660 5664 5673 5683 5683 5692 5695 5696 5697 5698 5697 5696 5692 5690 5689 5687 5682 5676 5673 5666 5661 5655 5649 5640 5635 5630 5625 5620 5614 5606 5601 5594 5589 5582 5578 5569 5560 5553 5545
5557 5561 5570 5568 5547 5571 5586 5599 5623 5640 5645 5656 5662 5674 5675 5682 5687 5689 5693 5699 5699 5695 5692 5694 5692 5686 5680 5678 5670 5663 5657 5652 5646 5636 5630 5626 5622 5616 5610 5602 5593 5586 5584 5574 5570 5562 5553 5545 5536
5563 5563 5558 5561 5565 5566 5574 5580 5594 5617 5625 5643 5650 5662 5669 5676 5686 5691 5693 5695 5698 5697 5694 5689 5686 5684 5680 5674 5669 5660 5655 5650 5641 5631 5628 5622 5615 5608 5602 5594 5588 5581 5576 5567 5562 5553 5544 5537 5527
5550 5553 5557 5567 5559 5566 5570 5575 5589 5596 5611 5616 5635 5653 5660 5672 5673 5679 5689 5692 5692 5690 5684 5685 5681 5680 5677 5673 5665 5658 5651 5644 5641 5635 5628 5618 5610 5603 5595 5590 5582 5574 5569 5560 5553 5543 5535 5528 5519
5531 5556 5563 5571 5559 5552 5563 5567 5578 5588 5601 5607 5622 5638 5651 5655 5660 5665 5672 5675 5676 5680 5679 5678 5674 5671 5669 5666 5659 5651 5646 5640 5636 5631 5623 5616 5606 5597 5589 5582 5574 5567 5561 5553 5545 5536 5528 5519 5511